Torna al catalogo

THORAD AGENA D DEB

AttivoSSO
NORAD 4970·DEBRIS·🇺🇸 United States

Lanciato Apr 8, 1970 da Vandenberg Space Force Base

Loading…

Prossimi Passaggi

TLE

Source: Space-Track
1 04970U 70025GQ  26229.86365968  .00000317  00000-0  48509-3 0  9996
2 04970  99.9575 195.7499 0038293  74.0736 316.0791 13.59974502782944

Traccia THORAD AGENA D DEB in tempo reale con AllMySat

Download on the App Store